Printer-friendly version

IAU Minor Planet Center

Minor Planet Center

MPEC 2007-V21 : 2007 VF3

The following Minor Planet Electronic Circular may be linked-to from your own Web pages, but must not otherwise be redistributed electronically.


Read MPEC 2007-V20 Read MPEC 2007-V22


M.P.E.C. 2007-V21                                Issued 2007 Nov. 4, 18:41 UT

     The Minor Planet Electronic Circulars contain information on unusual
         minor planets and routine data on comets.  They are published
   on behalf of Commission 20 of the International Astronomical Union by the
          Minor Planet Center, Smithsonian Astrophysical Observatory,
                          Cambridge, MA 02138, U.S.A.

             Prepared using the Tamkin Foundation Computer Network

                              MPC@CFA.HARVARD.EDU
          URL http://www.cfa.harvard.edu/iau/mpc.html  ISSN 1523-6714

                                   2007 VF3

Observations:
     K07V03F* C2007 11 02.33499 02 43 09.30 +10 20 02.6          21.3 V EV021G96
     K07V03F  C2007 11 02.34232 02 43 11.42 +10 19 42.3          21.5 V EV021G96
     K07V03F  C2007 11 02.34958 02 43 13.44 +10 19 22.6          21.4 V EV021G96
     K07V03F  C2007 11 02.35686 02 43 15.49 +10 19 01.7          22.0 V EV021G96
     K07V03F  C2007 11 02.40000 02 43 27.71 +10 17 01.4          21.6 V EV021G96
     K07V03F  C2007 11 02.40290 02 43 28.54 +10 16 53.6          21.2 V EV021G96
     K07V03F  C2007 11 02.40579 02 43 29.33 +10 16 45.4          21.6 V EV021G96
     K07V03F  C2007 11 02.40880 02 43 30.27 +10 16 36.4          21.7 V EV021G96
     K07V03F  C2007 11 03.26210 02 47 52.18 +09 37 15.2          21.2 V EV021G96
     K07V03F  C2007 11 03.27344 02 47 55.42 +09 36 44.0          20.7 V EV021G96
     K07V03F  C2007 11 03.28490 02 47 58.59 +09 36 12.1          21.1 V EV021G96
     K07V03F  C2007 11 03.29631 02 48 01.80 +09 35 40.5          21.3 V EV021G96
     K07V03F  C2007 11 03.34756 02 48 16.16 +09 33 18.0          21.0 V EV021G96
     K07V03F  C2007 11 03.34984 02 48 16.81 +09 33 12.0          20.8 V EV021G96
     K07V03F  C2007 11 03.35211 02 48 17.49 +09 33 05.2          21.2 V EV021G96
     K07V03F  C2007 11 03.35442 02 48 18.10 +09 32 58.8          21.0 V EV021G96
     K07V03F  C2007 11 04.34456 02 53 17.26 +08 47 06.6          21.3 V EV021G96
     K07V03F  C2007 11 04.34961 02 53 18.70 +08 46 52.1          21.0 V EV021G96
     K07V03F  C2007 11 04.35478 02 53 20.14 +08 46 37.9          21.4 V EV021G96
     K07V03F  C2007 11 04.36140 02 53 22.02 +08 46 19.4          21.7 V EV021G96

Observer details:
G96 Mt. Lemmon Survey.  Observer A. Boattini.  Measurers E. C. Beshore,
    A. Boattini, G. J. Garradd, A. R. Gibbs, A. D. Grauer, R. E. Hill,
    R. A. Kowalski, S. M. Larson, R. H. McNaught.  1.5-m reflector + CCD.

Orbital elements:
2007 VF3                                                 Earth MOID = 0.1408 AU
Epoch 2007 Oct. 27.0 TT = JDT 2454400.5                 MPC
M 356.30511              (2000.0)            P               Q
n   0.27970658     Peri.  191.70408     +0.68756459     -0.72192418
a   2.3156216      Node   214.94359     +0.67670842     +0.67600665
e   0.5119914      Incl.    7.82456     +0.26328814     +0.14778528
P   3.52           H   24.8           G   0.15           U   8
Residuals in seconds of arc
071102 G96  0.2-  0.1+    071102 G96  0.6+  0.5-    071103 G96  0.4+  0.2-
071102 G96  0.6+  0.2+    071103 G96  0.3-  0.1-    071103 G96  0.2-  0.2-
071102 G96  0.2+  0.6+    071103 G96  0.5+  0.0     071104 G96  0.3-  0.3+
071102 G96  0.1+  0.1-    071103 G96  0.2-  0.2-    071104 G96  0.1+  0.1-
071102 G96  0.2-  0.1-    071103 G96  0.1-  0.2-    071104 G96  0.0   0.1+
071102 G96  0.1-  0.2+    071103 G96  0.4-  0.1-    071104 G96  0.4+  0.1+
071102 G96  0.6-  0.1+    071103 G96  0.2-  0.2+

Ephemeris:
2007 VF3                 a,e,i = 2.32, 0.51, 8                   q = 1.1300
Date    TT    R. A. (2000) Decl.     Delta      r     Elong.  Phase     V
2007 10 27    02 11.28   +14 57.9    0.147    1.140   176.9     2.7    21.2
2007 10 29    02 21.24   +13 34.3    0.144    1.137   177.5     2.2    21.1
2007 10 31    02 31.33   +12 06.5    0.142    1.135   176.5     3.1    21.2
2007 11 02    02 41.47   +10 35.9    0.141    1.133   174.7     4.7    21.2
2007 11 04    02 51.57   +09 03.5    0.141    1.132   172.6     6.5    21.3
2007 11 06    03 01.55   +07 31.0    0.141    1.131   170.5     8.3    21.4
2007 11 08    03 11.34   +05 59.5    0.142    1.130   168.4    10.1    21.5
2007 11 10    03 20.86   +04 30.6    0.143    1.130   166.4    11.9    21.6
2007 11 12    03 30.07   +03 05.4    0.145    1.130   164.5    13.5    21.7
2007 11 14    03 38.90   +01 45.0    0.148    1.131   162.7    15.1    21.8
2007 11 16    03 47.33   +00 30.0    0.151    1.133   161.0    16.5    21.8
2007 11 18    03 55.33   -00 38.8    0.155    1.135   159.4    17.8    21.9
2007 11 20    04 02.89   -01 41.2    0.159    1.137   158.0    19.0    22.0
2007 11 22    04 10.01   -02 36.9    0.163    1.140   156.8    20.0    22.1
2007 11 24    04 16.68   -03 26.0    0.168    1.143   155.6    20.9    22.2
2007 11 26    04 22.91   -04 08.6    0.174    1.147   154.7    21.6    22.3

Gareth V. Williams           (C) Copyright 2007 MPC           M.P.E.C. 2007-V21

Read MPEC 2007-V20 Read MPEC 2007-V22


Our Web policy. Index to the CBAT/MPC/ICQ pages.


Valid HTML 4.01!